CAPE
0 0 1 7 3 4 0 0 0 0 0 0 0 0 0 5 8 4 0 0 0 0 13 0 0 0 0 12 133 232 430 92 0 0 0 0 0 0 0 0 0 0 0 0 0 0 12
8 7 0 0 1 10 18 3 0 0 0 0 0 0 0 3 9 2 0 0 0 0 0 0 0 0 0 6 39 228 9 0 0 0 0 0 0 0 0 0 0 0 0 0 0 0 96
13 13 13 0 1 0 2 14 0 0 0 0 0 0 0 0 0 0 0 0 0 0 0 0 0 0 0 0 8 183 0 0 0 0 0 0 0 0 0 32 1 0 0 0 0 0 35
20 17 19 13 1 1 6 12 7 0 0 0 0 0 0 0 0 0 0 0 0 0 0 0 0 0 0 1 0 0 142 34 2 0 0 0 2 0 0 0 0 0 0 0 0 0 12
22 15 17 17 9 0 0 2 8 1 0 0 0 0 0 0 0 0 0 0 0 0 0 0 0 0 17 0 0 0 0 29 17 31 1 0 0 0 0 0 0 0 0 0 0 0 0
23 25 21 17 11 9 0 0 2 11 0 0 0 0 0 0 0 0 0 0 0 0 0 0 0 0 57 0 0 0 0 0 7 28 0 0 0 6 0 0 0 0 0 0 0 0 0
14 29 23 17 3 9 17 0 0 5 8 0 0 0 0 0 0 0 0 0 0 0 0 0 0 0 0 0 0 0 0 0 9 24 8 14 6 5 7 1 0 0 2 2 6 0 0
30 41 37 31 22 10 3 14 2 6 24 0 0 0 0 0 0 0 0 0 6 0 23 0 0 0 0 0 0 0 0 0 24 48 0 0 0 0 0 0 0 3 15 3 0 0 0
30 33 39 35 38 23 4 4 12 4 12 1 0 0 0 0 0 0 0 0 0 0 41 4 0 0 0 0 0 0 0 0 2 13 0 1 0 0 0 0 1 0 16 16 7 0 0
41 41 38 41 37 32 7 0 1 7 8 11 0 0 0 0 0 0 0 0 0 0 12 0 0 0 0 0 0 0 4 0 8 0 1 0 0 0 0 0 0 41 51 8 16 37 0
0 50 50 46 38 27 12 0 3 12 1 21 0 0 0 0 0 0 117 12 7 322 49 0 0 0 0 0 3 0 0 0 5 4 91 4 20 1 1 18 81 23 21 36 44 73 148
0 67 57 44 48 34 24 9 7 17 5 19 0 0 0 0 0 0 0 100 668 412 3 0 0 0 0 0 0 4 0 0 1 1 41 4 9 26 65 38 71 71 7 85 23 56 301
0 0 27 0 18 55 33 13 8 14 8 22 2 0 0 1 0 0 0 594 188 4 0 2 0 0 0 0 0 0 0 0 0 2 24 1 1 15 20 2 25 9 28 72 78 182 249
0 0 39 78 52 61 44 23 8 15 10 23 8 0 2 0 0 1 193 490 15 0 0 0 0 5 8 17 1 0 0 0 0 0 9 63 74 23 1 1 22 52 1 168 8 0 52
62 84 113 108 87 66 51 29 15 15 5 33 8 0 9 0 0 17 154 90 5 0 0 13 4 21 17 25 3 0 0 0 0 0 1 46 0 1 9 0 2 0 59 40 10 129 245
75 105 103 98 92 84 53 45 27 23 22 34 14 0 0 1 0 0 133 6 0 2 3 18 10 12 41 52 0 0 22 17 4 3 152 29 0 18 6 3 4 5 0 98 88 10 0
118 124 111 91 71 81 69 55 49 35 7 35 21 0 35 1 13 34 72 2 13 11 0 17 0 17 43 74 1 33 74 80 76 40 34 70 169 85 10 5 0 0 2 0 0 285 514
110 140 102 74 51 21 71 73 50 48 11 38 17 9 74 44 0 0 19 6 4 28 0 13 16 36 12 99 23 1 60 185 134 39 36 17 38 586 74 0 0 0 78 0 510 32 552
19 92 95 101 82 11 81 74 49 53 40 20 10 127 316 184 0 17 0 2 14 28 29 61 2 40 7 46 69 0 9 300 265 85 49 35 55 304 80 127 19 0 0 18 31 181 180
141 148 158 118 93 4 95 79 53 32 38 31 38 107 262 190 15 14 32 0 21 57 17 30 20 35 0 0 16 25 34 164 123 126 23 160 27 6 286 72 64 101 0 0 0 236 47
126 162 176 149 77 0 96 86 64 17 23 12 230 86 49 24 65 58 266 73 30 30 18 80 23 0 73 51 78 71 119 227 78 43 3 25 9 1 0 25 21 20 6 0 0 0 0
115 147 175 119 40 1 103 107 67 8 12 18 147 130 241 118 37 151 197 129 29 24 42 97 146 41 76 128 71 115 109 417 160 88 19 38 234 185 173 28 3 0 0 0 0 0 0
136 124 158 87 40 32 106 65 78 18 2 11 32 167 276 130 146 362 327 171 53 82 145 155 133 193 172 415 439 551 639 571 282 360 318 425 703 182 47 0 0 0 0 0 0 0 0
85 0 0 100 38 87 112 36 20 1 0 0 46 403 142 238 156 228 254 105 39 81 390 295 324 435 478 321 345 258 133 113 196 181 397 330 317 213 192 0 0 0 0 0 0 0 0
70 50 0 62 87 99 95 30 0 0 2 0 269 403 238 183 407 322 446 385 93 124 447 376 594 614 590 431 396 164 482 10 0 0 11 63 183 133 47 0 0 0 0 0 0 0 0
51 80 121 103 87 71 47 5 2 0 14 0 39 219 505 600 629 177 198 129 227 877 765 278 380 618 611 1337 1202 184 320 61 62 7 0 0 9 334 0 52 0 0 0 0 0 0 0
58 106 127 95 84 59 44 3 0 0 0 7 38 51 584 678 575 163 110 51 132 954 880 445 249 233 485 1300 921 1034 662 55 202 76 0 0 50 0 0 54 7 0 0 0 0 1 0
82 148 127 104 88 43 30 0 0 0 0 3 46 103 396 427 343 345 172 55 168 887 1060 696 454 474 1263 825 779 1141 859 629 330 18 0 9 132 2 144 0 0 0 0 0 35 0 0
110 142 88 89 51 28 1 0 2 0 7 26 37 280 734 1008 738 1087 584 390 334 123 936 877 735 770 1095 1071 801 1386 255 129 138 256 2 120 160 499 7 52 0 0 0 0 0 0 0
CIN
0 0 -4 -8 0 0 -1 0 0 0 0 0 0 0 0 -1 0 -1 0 0 0 0 -2 0 0 0 0 -474 -184 -258 -615 -718 0 0 -81 0 0 0 0 0 0 0 0 0 0 0 -18
0 0 0 -3 0 -1 -2 -3 0 0 0 0 0 0 0 -2 -3 -1 0 0 0 0 0 0 0 0 0 -304 -75 -149 -111 0 0 0 0 0 0 0 -6 0 0 0 0 0 0 0 -5
0 0 0 0 0 0 0 0 0 0 0 0 0 0 0 0 -1 0 0 0 0 0 0 0 0 0 0 -2 -140 -70 0 0 0 0 0 0 0 0 0 -2 -3 0 0 0 0 0 -4
0 0 0 0 0 0 0 0 0 0 0 0 0 0 0 0 0 0 0 0 0 0 0 0 0 0 0 -150 0 0 -52 -74 -19 -5 0 0 -99 0 0 0 0 0 0 0 0 0 -7
0 0 0 0 -1 0 0 -1 0 0 0 0 0 0 0 0 0 0 0 0 0 0 0 0 0 0 -163 0 0 0 0 -46 -34 -63 -78 0 0 0 0 0 0 0 0 0 0 -1 0
0 0 0 0 0 -1 0 0 -3 0 0 0 0 0 0 0 0 0 0 0 0 0 0 0 0 0 -187 0 0 0 0 0 -59 -60 0 0 0 -51 0 -1 0 0 0 0 0 0 0
0 0 0 0 0 0 0 0 0 0 0 0 0 0 0 0 0 0 0 0 0 0 0 0 0 -1 0 0 0 0 0 0 -16 -57 -47 -35 -14 0 0 -2 0 0 -3 -14 -4 0 0
0 0 0 0 0 0 0 0 0 0 0 0 0 0 0 0 0 0 0 0 -25 0 -126 0 0 0 0 0 0 0 0 -3 -14 -7 0 -16 -4 0 0 0 -1 -9 -11 -14 0 0 0
0 0 0 0 0 0 0 0 -11 0 0 0 0 0 0 0 0 0 0 0 0 0 -70 -35 0 0 0 0 0 0 0 -1 -16 -1 0 -12 -8 0 0 0 -3 -1 -7 -19 -5 0 0
0 0 0 0 0 0 0 0 -1 -2 0 0 0 0 0 0 0 0 0 0 0 0 -28 0 0 0 0 0 0 0 -3 -1 -5 0 -1 0 -36 0 0 0 0 -6 -33 -6 -14 -28 0
0 0 0 0 0 -1 -3 0 -3 -1 0 0 0 0 0 0 0 0 -49 -1 -13 -11 0 0 0 0 0 0 -4 0 0 0 -15 -3 -1 -9 -8 -10 -26 -6 -1 -22 -47 -19 -1 -2 -6
0 0 0 0 0 -1 -4 -4 -2 -2 0 0 0 0 0 0 0 0 0 -39 -2 0 0 0 0 0 0 0 0 -1 0 0 -9 -18 -19 -43 -23 -13 -8 -5 -7 -20 -14 -13 -2 -2 -37
0 0 0 0 0 0 -2 -4 -2 -3 0 0 0 0 0 0 0 0 0 0 0 0 0 -1 0 0 0 0 0 0 0 0 0 -14 -8 -13 -18 -10 -15 -5 -14 -5 -2 -2 -21 -30 -13
0 0 0 0 0 -1 -2 -3 -3 -3 0 0 0 0 0 0 0 0 -7 0 0 0 0 0 0 0 -1 -1 -1 0 0 0 0 0 -15 -6 -2 -19 -40 -20 -50 -5 0 -9 -26 0 -55
0 0 0 0 0 0 -2 -3 -2 -4 -1 0 0 0 0 0 0 -1 0 -43 0 0 0 -1 -1 -1 0 -3 0 0 0 0 0 0 -21 -71 -7 -77 -13 -1 -17 0 -1 -3 -8 -82 -3
0 0 0 0 0 0 -3 -4 -2 -2 0 0 0 0 0 0 0 0 -22 -1 0 -15 -3 -5 -1 -1 0 -1 0 -2 -5 -10 -3 -1 -12 -64 0 -87 -19 -25 -50 -15 0 -4 -7 -1 0
0 0 0 0 0 0 -2 -2 -2 -1 -5 0 0 0 -10 0 0 -1 0 0 -46 -15 0 -1 0 -1 -1 -2 -6 -6 -1 -2 -8 -10 -14 -15 -36 -3 -59 -34 0 0 -14 0 0 -4 -4
0 0 0 0 0 0 0 -1 -2 -1 -3 0 0 0 -25 -48 0 0 0 0 -10 -4 0 -12 -4 0 -6 0 -2 0 -16 -8 -15 -15 -26 -23 -17 -8 -14 0 0 0 -5 0 -17 -24 -19
-1 0 0 0 -4 0 0 -1 -3 -1 0 0 0 -8 -7 -27 0 0 0 -1 -26 -3 -1 -13 -5 -7 -7 -2 -2 -1 -1 -61 -52 -32 -40 -39 -4 -4 -4 -5 -20 0 0 -8 -2 -40 -17
0 0 0 0 -13 -6 0 -1 -3 -2 0 0 0 -1 -4 -3 -1 -2 0 -1 -4 -4 -1 -6 -14 -1 -1 0 -3 -4 -1 -75 -87 -46 -82 -39 -25 -2 -2 -4 -7 -7 0 0 0 -50 -54
0 0 0 0 -16 0 0 -1 -4 0 -8 -20 -90 -48 -103 0 -17 -8 -2 -1 0 -1 -2 -2 -3 0 -10 -14 -2 -1 -1 -49 -76 -98 -20 -37 -5 -4 0 -2 -8 -9 -4 0 0 -1 0
0 0 0 0 -24 -1 0 -4 -3 -1 -52 -13 -137 -95 -28 -23 -26 -6 -2 -1 0 -1 -4 0 -1 -8 -6 -1 -4 -1 -1 -15 -18 -57 -18 -24 -4 -13 -16 -25 -5 0 0 0 0 0 0
0 0 0 -7 -31 -13 -1 -9 -3 -6 -83 -6 -2 -120 -24 -77 -10 -1 0 -1 -16 -2 -2 -2 -1 -1 -2 -7 -14 -26 -33 -10 -2 -16 -22 -11 -30 -53 -8 0 0 0 0 0 0 0 0
0 -1 -27 -3 -7 -7 -4 -10 -6 0 0 0 -17 -29 -59 -3 -3 -1 -1 -1 -1 -1 0 -1 -2 -1 -59 -62 -55 -51 -45 -17 -33 -24 -8 -77 -55 -49 -21 0 0 0 0 0 0 0 0
0 0 -4 -15 -8 -1 -3 -22 0 0 0 0 -37 -25 -19 -35 0 0 -1 0 -1 -7 -1 -4 -42 -49 -61 -48 -53 -69 -58 -23 0 0 -5 -54 -54 -47 -37 0 0 0 0 0 0 0 0
0 -3 0 -1 -4 -3 -7 -4 -1 0 0 0 -10 -37 -4 -6 0 -1 0 0 -7 -11 -32 -16 -78 -51 -27 -9 -16 -9 -3 -16 -12 -17 0 0 -46 -12 0 -17 0 0 0 0 0 0 0
-6 -2 -2 -6 -5 -11 -6 -1 0 0 0 -6 -25 -46 0 -2 -1 -8 0 -4 -9 -7 -9 -41 -122 -133 -57 -28 -44 -1 -2 -16 -4 -32 0 0 -20 0 0 -3 -11 0 0 0 0 -4 0
-11 -1 -4 -5 -14 -4 -13 0 0 0 0 -18 -42 -37 0 -69 -8 -2 -2 -8 -2 -5 -14 -31 -52 -37 -10 -48 -49 -1 -26 -8 -10 -59 0 -54 -24 -65 -10 0 0 0 0 0 -10 0 0
-10 -4 -9 -2 -33 -13 -2 0 0 0 -3 -27 -5 -1 -24 -8 -35 -75 -107 -95 -48 -2 -7 -47 -11 -36 -33 -3 -47 -18 -122 -41 -56 -10 -73 -15 -8 -1 -8 -30 0 0 0 0 0 0 0
Wind_Speed
nan nan nan nan nan nan nan nan nan nan nan nan nan nan nan nan nan nan nan nan nan nan nan nan nan nan nan nan 18 19 21 nan nan nan nan nan nan nan nan nan nan nan nan nan nan nan nan
nan nan nan nan nan nan nan nan nan nan nan nan nan nan nan nan nan nan nan nan nan nan nan nan nan nan nan nan nan 30 nan nan nan nan nan nan nan nan nan nan nan nan nan nan nan nan nan
nan nan nan nan nan nan nan nan nan nan nan nan nan nan nan nan nan nan nan nan nan nan nan nan nan nan nan nan nan 29 nan nan nan nan nan nan nan nan nan nan nan nan nan nan nan nan nan
nan nan nan nan nan nan nan nan nan nan nan nan nan nan nan nan nan nan nan nan nan nan nan nan nan nan nan nan nan nan 18 nan nan nan nan nan nan nan nan nan nan nan nan nan nan nan nan
nan nan nan nan nan nan nan nan nan nan nan nan nan nan nan nan nan nan nan nan nan nan nan nan nan nan nan nan nan nan nan nan nan nan nan nan nan nan nan nan nan nan nan nan nan nan nan
nan nan nan nan nan nan nan nan nan nan nan nan nan nan nan nan nan nan nan nan nan nan nan nan nan nan nan nan nan nan nan nan nan nan nan nan nan nan nan nan nan nan nan nan nan nan nan
nan nan nan nan nan nan nan nan nan nan nan nan nan nan nan nan nan nan nan nan nan nan nan nan nan nan nan nan nan nan nan nan nan nan nan nan nan nan nan nan nan nan nan nan nan nan nan
nan nan nan nan nan nan nan nan nan nan nan nan nan nan nan nan nan nan nan nan nan nan nan nan nan nan nan nan nan nan nan nan nan nan nan nan nan nan nan nan nan nan nan nan nan nan nan
nan nan nan nan nan nan nan nan nan nan nan nan nan nan nan nan nan nan nan nan nan nan nan nan nan nan nan nan nan nan nan nan nan nan nan nan nan nan nan nan nan nan nan nan nan nan nan
nan nan nan nan nan nan nan nan nan nan nan nan nan nan nan nan nan nan nan nan nan nan nan nan nan nan nan nan nan nan nan nan nan nan nan nan nan nan nan nan nan nan nan nan nan nan nan
nan nan nan nan nan nan nan nan nan nan nan nan nan nan nan nan nan nan 30 nan nan 16 nan nan nan nan nan nan nan nan nan nan nan nan nan nan nan nan nan nan nan nan nan nan nan nan 15
nan nan nan nan nan nan nan nan nan nan nan nan nan nan nan nan nan nan nan 21 20 16 nan nan nan nan nan nan nan nan nan nan nan nan nan nan nan nan nan nan nan nan nan nan nan nan 17
nan nan nan nan nan nan nan nan nan nan nan nan nan nan nan nan nan nan nan 21 20 nan nan nan nan nan nan nan nan nan nan nan nan nan nan nan nan nan nan nan nan nan nan nan nan 15 11
nan nan nan nan nan nan nan nan nan nan nan nan nan nan nan nan nan nan 28 24 nan nan nan nan nan nan nan nan nan nan nan nan nan nan nan nan nan nan nan nan nan nan nan 8 nan nan nan
nan nan 68 64 nan nan nan nan nan nan nan nan nan nan nan nan nan nan 30 nan nan nan nan nan nan nan nan nan nan nan nan nan nan nan nan nan nan nan nan nan nan nan nan nan nan 29 4
nan 76 71 nan nan nan nan nan nan nan nan nan nan nan nan nan nan nan 30 nan nan nan nan nan nan nan nan nan nan nan nan nan nan nan 14 nan nan nan nan nan nan nan nan nan nan nan nan
81 76 77 nan nan nan nan nan nan nan nan nan nan nan nan nan nan nan nan nan nan nan nan nan nan nan nan nan nan nan nan nan nan nan nan nan 24 nan nan nan nan nan nan nan nan 15 18
62 75 78 nan nan nan nan nan nan nan nan nan nan nan nan nan nan nan nan nan nan nan nan nan nan nan nan nan nan nan nan 15 17 nan nan nan nan 22 nan nan nan nan nan nan 22 nan 22
nan nan nan 78 nan nan nan nan nan nan nan nan nan 53 49 49 nan nan nan nan nan nan nan nan nan nan nan nan nan nan nan 25 24 nan nan nan nan 16 nan 17 nan nan nan nan nan 19 13
17 38 57 68 nan nan nan nan nan nan nan nan nan 55 54 46 nan nan nan nan nan nan nan nan nan nan nan nan nan nan nan 26 20 24 nan 22 nan nan 13 nan nan 19 nan nan nan 20 nan
18 20 43 60 nan nan nan nan nan nan nan nan 59 nan nan nan nan nan 25 nan nan nan nan nan nan nan nan nan nan nan 18 27 nan nan nan nan nan nan nan nan nan nan nan nan nan nan nan
13 18 29 52 nan nan 65 66 nan nan nan nan 58 51 55 49 nan 29 26 21 nan nan nan nan 24 nan nan 15 nan 18 16 23 20 nan nan nan 23 24 20 nan nan nan nan nan nan nan nan
9 15 24 nan nan nan 67 nan nan nan nan nan nan 64 57 56 35 33 30 24 nan nan 23 19 15 15 11 29 34 34 29 17 21 21 16 22 23 24 nan nan nan nan nan nan nan nan nan
nan nan nan 34 nan nan 81 nan nan nan nan nan nan 66 54 48 37 31 28 26 nan nan 27 31 28 15 34 28 31 31 31 29 30 27 19 24 23 24 24 nan nan nan nan nan nan nan nan
nan nan nan nan nan nan nan nan nan nan nan nan 69 65 58 53 41 31 27 28 nan 27 29 32 49 38 19 23 18 15 17 nan nan nan nan nan 25 23 nan nan nan nan nan nan nan nan nan
nan nan 23 28 nan nan nan nan nan nan nan nan nan 58 59 54 44 25 38 37 44 41 54 48 43 32 24 21 15 10 9 nan nan nan nan nan nan 19 nan nan nan nan nan nan nan nan nan
nan 16 23 nan nan nan nan nan nan nan nan nan nan nan 57 37 45 35 47 nan 42 55 51 43 40 35 31 25 19 13 8 nan 7 nan nan nan nan nan nan nan nan nan nan nan nan nan nan
nan 24 25 25 nan nan nan nan nan nan nan nan nan 45 52 57 41 44 47 nan 52 52 45 43 41 37 32 27 21 18 15 9 8 nan nan nan 12 nan 14 nan nan nan nan nan nan nan nan
19 20 nan nan nan nan nan nan nan nan nan nan nan 48 36 41 60 65 65 69 66 50 47 40 39 32 30 29 29 25 22 19 16 12 nan 14 14 16 nan nan nan nan nan nan nan nan nan
Wind_Direction
nan nan nan nan nan nan nan nan nan nan nan nan nan nan nan nan nan nan nan nan nan nan nan nan nan nan nan nan 349 311 315 nan nan nan nan nan nan nan nan nan nan nan nan nan nan nan nan
nan nan nan nan nan nan nan nan nan nan nan nan nan nan nan nan nan nan nan nan nan nan nan nan nan nan nan nan nan 319 nan nan nan nan nan nan nan nan nan nan nan nan nan nan nan nan nan
nan nan nan nan nan nan nan nan nan nan nan nan nan nan nan nan nan nan nan nan nan nan nan nan nan nan nan nan nan 310 nan nan nan nan nan nan nan nan nan nan nan nan nan nan nan nan nan
nan nan nan nan nan nan nan nan nan nan nan nan nan nan nan nan nan nan nan nan nan nan nan nan nan nan nan nan nan nan 333 nan nan nan nan nan nan nan nan nan nan nan nan nan nan nan nan
nan nan nan nan nan nan nan nan nan nan nan nan nan nan nan nan nan nan nan nan nan nan nan nan nan nan nan nan nan nan nan nan nan nan nan nan nan nan nan nan nan nan nan nan nan nan nan
nan nan nan nan nan nan nan nan nan nan nan nan nan nan nan nan nan nan nan nan nan nan nan nan nan nan nan nan nan nan nan nan nan nan nan nan nan nan nan nan nan nan nan nan nan nan nan
nan nan nan nan nan nan nan nan nan nan nan nan nan nan nan nan nan nan nan nan nan nan nan nan nan nan nan nan nan nan nan nan nan nan nan nan nan nan nan nan nan nan nan nan nan nan nan
nan nan nan nan nan nan nan nan nan nan nan nan nan nan nan nan nan nan nan nan nan nan nan nan nan nan nan nan nan nan nan nan nan nan nan nan nan nan nan nan nan nan nan nan nan nan nan
nan nan nan nan nan nan nan nan nan nan nan nan nan nan nan nan nan nan nan nan nan nan nan nan nan nan nan nan nan nan nan nan nan nan nan nan nan nan nan nan nan nan nan nan nan nan nan
nan nan nan nan nan nan nan nan nan nan nan nan nan nan nan nan nan nan nan nan nan nan nan nan nan nan nan nan nan nan nan nan nan nan nan nan nan nan nan nan nan nan nan nan nan nan nan
nan nan nan nan nan nan nan nan nan nan nan nan nan nan nan nan nan nan 245 nan nan 284 nan nan nan nan nan nan nan nan nan nan nan nan nan nan nan nan nan nan nan nan nan nan nan nan 220
nan nan nan nan nan nan nan nan nan nan nan nan nan nan nan nan nan nan nan 216 265 260 nan nan nan nan nan nan nan nan nan nan nan nan nan nan nan nan nan nan nan nan nan nan nan nan 262
nan nan nan nan nan nan nan nan nan nan nan nan nan nan nan nan nan nan nan 238 260 nan nan nan nan nan nan nan nan nan nan nan nan nan nan nan nan nan nan nan nan nan nan nan nan 209 216
nan nan nan nan nan nan nan nan nan nan nan nan nan nan nan nan nan nan 230 236 nan nan nan nan nan nan nan nan nan nan nan nan nan nan nan nan nan nan nan nan nan nan nan 226 nan nan nan
nan nan 240 244 nan nan nan nan nan nan nan nan nan nan nan nan nan nan 228 nan nan nan nan nan nan nan nan nan nan nan nan nan nan nan nan nan nan nan nan nan nan nan nan nan nan 340 311
nan 236 237 nan nan nan nan nan nan nan nan nan nan nan nan nan nan nan 227 nan nan nan nan nan nan nan nan nan nan nan nan nan nan nan 277 nan nan nan nan nan nan nan nan nan nan nan nan
244 238 237 nan nan nan nan nan nan nan nan nan nan nan nan nan nan nan nan nan nan nan nan nan nan nan nan nan nan nan nan nan nan nan nan nan 355 nan nan nan nan nan nan nan nan 264 265
243 239 237 nan nan nan nan nan nan nan nan nan nan nan nan nan nan nan nan nan nan nan nan nan nan nan nan nan nan nan nan 151 252 nan nan nan nan 228 nan nan nan nan nan nan 262 nan 266
nan nan nan 231 nan nan nan nan nan nan nan nan nan 228 231 227 nan nan nan nan nan nan nan nan nan nan nan nan nan nan nan 220 224 nan nan nan nan 238 nan 300 nan nan nan nan nan 255 274
269 227 217 218 nan nan nan nan nan nan nan nan nan 225 224 222 nan nan nan nan nan nan nan nan nan nan nan nan nan nan nan 229 229 230 nan 231 nan nan 261 nan nan 316 nan nan nan 265 nan
257 234 212 204 nan nan nan nan nan nan nan nan 211 nan nan nan nan nan 211 nan nan nan nan nan nan nan nan nan nan nan 248 250 nan nan nan nan nan nan nan nan nan nan nan nan nan nan nan
232 226 218 206 nan nan 200 203 nan nan nan nan 202 214 226 227 nan 220 208 189 nan nan nan nan 178 nan nan 229 nan 261 260 265 264 nan nan nan 245 239 243 nan nan nan nan nan nan nan nan
245 237 216 nan nan nan 186 nan nan nan nan nan nan 201 213 227 215 211 202 207 nan nan 197 194 182 206 200 238 236 239 236 256 257 265 261 255 248 246 nan nan nan nan nan nan nan nan nan
nan nan nan 192 nan nan 181 nan nan nan nan nan nan 199 206 220 213 207 203 203 nan nan 211 204 185 175 226 247 242 236 237 238 244 233 249 244 247 247 242 nan nan nan nan nan nan nan nan
nan nan nan nan nan nan nan nan nan nan nan nan 197 198 200 208 204 208 203 207 nan 183 217 211 204 211 233 228 222 227 224 nan nan nan nan nan 248 243 nan nan nan nan nan nan nan nan nan
nan nan 194 207 nan nan nan nan nan nan nan nan nan 195 197 203 202 216 200 213 199 197 210 200 208 204 202 199 197 204 219 nan nan nan nan nan nan 234 nan nan nan nan nan nan nan nan nan
nan 204 198 nan nan nan nan nan nan nan nan nan nan nan 188 205 207 215 210 nan 198 214 211 209 201 201 191 203 206 209 214 nan 243 nan nan nan nan nan nan nan nan nan nan nan nan nan nan
nan 221 201 195 nan nan nan nan nan nan nan nan nan 169 196 188 204 210 214 nan 206 212 210 210 204 203 204 209 216 220 223 231 244 nan nan nan 280 nan 266 nan nan nan nan nan nan nan nan
191 175 nan nan nan nan nan nan nan nan nan nan nan 173 146 165 205 209 213 205 208 201 211 206 207 219 214 219 218 224 230 232 242 267 nan 276 289 279 nan nan nan nan nan nan nan nan nan